TimeEST,TemperatureF,Dew PointF,Humidity,Sea Level PressureIn,VisibilityMPH,Wind Direction,Wind SpeedMPH,Gust SpeedMPH,PrecipitationIn,Events,Conditions,WindDirDegrees,DateUTC
12:05 AM,30.2,28.4,93,29.44,7.0,Calm,Calm,-,0.00,Rain,Light Freezing Rain,0,2012-12-11 05:05:00
12:33 AM,30.2,28.4,93,29.44,10.0,SW,3.5,-,0.01,,Overcast,220,2012-12-11 05:33:00
12:54 AM,30.0,28.0,92,29.47,10.0,South,5.8,-,0.01,,Overcast,180,2012-12-11 05:54:00
1:23 AM,30.2,28.4,93,29.43,10.0,Calm,Calm,-,0.00,,Overcast,0,2012-12-11 06:23:00
1:54 AM,30.0,28.0,92,29.47,10.0,WSW,3.5,-,0.00,,Overcast,250,2012-12-11 06:54:00
2:26 AM,30.2,28.4,93,29.45,10.0,West,4.6,-,N/A,,Overcast,260,2012-12-11 07:26:00
2:54 AM,30.0,28.0,92,29.50,10.0,West,4.6,-,N/A,,Overcast,260,2012-12-11 07:54:00
3:54 AM,32.0,28.9,88,29.51,10.0,WNW,5.8,-,N/A,,Overcast,290,2012-12-11 08:54:00
4:54 AM,33.1,28.0,82,29.55,10.0,West,6.9,-,N/A,,Overcast,270,2012-12-11 09:54:00
5:46 AM,32.0,28.4,87,29.54,10.0,WNW,9.2,-,N/A,,Overcast,290,2012-12-11 10:46:00
5:54 AM,32.0,28.0,85,29.57,10.0,NW,6.9,-,N/A,,Overcast,310,2012-12-11 10:54:00
6:33 AM,30.2,26.6,86,29.57,9.0,NNW,6.9,-,0.00,Snow,Light Snow,340,2012-12-11 11:33:00
6:56 AM,30.2,26.6,86,29.59,10.0,Variable,4.6,-,N/A,,Overcast,0,2012-12-11 11:56:00
7:54 AM,28.9,26.1,89,29.66,10.0,WNW,3.5,-,N/A,,Overcast,290,2012-12-11 12:54:00
8:39 AM,28.4,24.8,86,29.65,4.0,NW,10.4,-,0.00,Snow,Light Snow,310,2012-12-11 13:39:00
8:54 AM,28.0,24.1,85,29.69,4.0,NW,9.2,-,0.00,Snow,Light Snow,320,2012-12-11 13:54:00
8:58 AM,28.4,24.8,86,29.66,1.8,NW,11.5,17.3,0.00,Snow,Light Snow,310,2012-12-11 13:58:00
9:13 AM,28.4,24.8,86,29.66,3.0,WNW,10.4,18.4,0.00,Snow,Light Snow,300,2012-12-11 14:13:00
9:54 AM,28.0,23.0,81,29.70,10.0,WNW,9.2,-,0.00,,Overcast,300,2012-12-11 14:54:00
10:23 AM,26.6,23.0,86,29.68,6.0,NNW,11.5,-,0.00,,Overcast,340,2012-12-11 15:23:00
10:54 AM,26.1,21.0,81,29.73,10.0,NW,15.0,19.6,0.00,,Overcast,320,2012-12-11 15:54:00
11:54 AM,25.0,19.9,81,29.76,10.0,WNW,10.4,-,N/A,,Mostly Cloudy,290,2012-12-11 16:54:00
12:54 PM,26.1,19.0,75,29.79,10.0,West,6.9,-,N/A,,Overcast,270,2012-12-11 17:54:00
1:54 PM,25.0,18.0,75,29.84,10.0,West,11.5,17.3,N/A,,Overcast,280,2012-12-11 18:54:00
2:54 PM,24.1,16.0,71,29.86,10.0,West,6.9,-,N/A,,Overcast,280,2012-12-11 19:54:00
3:29 PM,21.2,15.8,80,29.83,10.0,WNW,5.8,-,N/A,,Partly Cloudy,290,2012-12-11 20:29:00
3:54 PM,21.0,15.1,78,29.89,10.0,WNW,3.5,-,N/A,,Clear,290,2012-12-11 20:54:00
4:54 PM,18.0,14.0,84,29.93,10.0,West,3.5,-,N/A,,Clear,260,2012-12-11 21:54:00
5:54 PM,17.1,12.0,81,29.96,10.0,West,3.5,-,N/A,,Clear,280,2012-12-11 22:54:00
6:54 PM,16.0,12.0,84,29.99,10.0,West,3.5,-,N/A,,Clear,270,2012-12-11 23:54:00
7:54 PM,14.0,10.0,84,30.02,10.0,Calm,Calm,-,N/A,,Mostly Cloudy,0,2012-12-12 00:54:00
8:43 PM,15.8,10.4,79,29.99,10.0,WSW,3.5,-,N/A,,Scattered Clouds,250,2012-12-12 01:43:00
8:54 PM,12.9,10.0,88,30.04,10.0,WSW,3.5,-,N/A,,Clear,240,2012-12-12 01:54:00
9:54 PM,12.0,8.1,84,30.06,10.0,West,5.8,-,N/A,,Clear,260,2012-12-12 02:54:00
10:54 PM,10.9,7.0,84,30.08,10.0,WSW,6.9,-,N/A,,Clear,250,2012-12-12 03:54:00
11:15 PM,10.4,8.6,92,30.04,10.0,WSW,3.5,-,N/A,,Mostly Cloudy,250,2012-12-12 04:15:00
11:54 PM,12.0,8.1,84,30.09,10.0,West,3.5,-,N/A,,Overcast,260,2012-12-12 04:54:00